Location: Bucquoy
(50.1391°N, 2.7097°E)
Time: 23:21:50
(UTC+00:00)

Cosmos 371 Rocket - Pass Details

Date: 06 May 2021
Orbit: 684 x 699 km, 74.0° (Epoch: 21 June)

Event Time Altitude Azimuth Distance (km) Brightness Sun altitude
Exits shadow 02:30:03 - 172° (S) 2,192 5.5 -14.1°
Reaches altitude 10° 02:30:10 10° 171° (S) 2,145 5.4 -14.1°
Maximum altitude 02:34:38 38° 104° (ESE) 1,058 4.5 -13.7°
Drops below altitude 10° 02:39:08 10° 37° (NE) 2,168 7.3 -13.2°
Sets 02:41:35 0° 30° (NNE) 3,092 8.4 -12.9°
